Fairbanks, AK

5:41 AM AKDT on October 20, 2017 (GMT -0800)
Fairbanks International

Weather History for PAFA - June, 2012

Change the Weather History Date:

Friday, June 1, 2012

  Actual Average Record
Temperature  
Mean Temperature 56 °F 56 °F  
Max Temperature 63 °F 67 °F 87 °F (1919)
Min Temperature 48 °F 44 °F 31 °F (1947)
Degree Days  
Heating Degree Days 9 9  
Month to date heating degree days 9 9  
Since 1 June heating degree days 9 9  
Since 1 July heating degree days 13782 13518  
Cooling Degree Days 0 0  
Month to date cooling degree days 0 0  
Year to date cooling degree days 0 1  
Since 1 June cooling degree days 0 0  
Growing Degree Days 6 (Base 50)    
Moisture  
Dew Point 44 °F    
Average Humidity 70    
Maximum Humidity 96    
Minimum Humidity 34    
Precipitation  
Precipitation 0.21 in 0.03 in 0.66 in (1992)
Month to date precipitation 0.21 0.03  
Year to date precipitation 2.86 2.19  
Snow  
Snow 0.00 in 0.00 in 0.00 in (2002)
Month to date snowfall 0 0.0  
Since 1 June snowfall 0 0.0  
Since 1 July snowfall 57.4 65.0  
Snow Depth 0.00 in    
Sea Level Pressure  
Sea Level Pressure 29.63 in    
Wind  
Wind Speed 3 mph (SW)    
Max Wind Speed 15 mph    
Max Gust Speed 20 mph    
Visibility 10 miles    
Events Rain    
T = Trace of Precipitation, MM = Missing Value Source: NWS Daily Summary

Daily Weather History Graph

Daily Weather History Graph

Search for Another Location

Airport or City:

Trip Planner

Search our weather history database for the weather conditions in past years. The results will help you decide how hot, cold, wet, or windy it might be!

Date:

Astronomy

Jun. 01, 2012 Rise Set
Actual Time 3:31 AM AKDT 12:09 AM AKDT
Civil Twilight Sun does not rise Sun does not rise
Nautical Twilight Sun does not rise Sun does not rise
Astronomical Twilight Sun does not rise Sun does not rise
Moon 8:16 PM AKDT (6/1) 2:43 AM AKDT (6/1)
Length of Visible Light 24h 00m
Length of Day
20h 38m
Waxing Gibbous, 90% of the Moon is Illuminated
Jun 1
Waxing Gibbous
Jun 4
Full
Jun 11
Last Quarter
Jun 19
New
Jun 26
First Quarter

Hourly Weather History & Observations

Time (AKDT) Temp. Dew Point Humidity Pressure Visibility Wind Dir Wind Speed Gust Speed Precip Events Conditions
12:53 AM 54.0 °F 41.0 °F 62% 29.57 in 10.0 mi South 3.5 mph - N/A   Mostly Cloudy
1:53 AM 52.0 °F 42.1 °F 69% 29.59 in 10.0 mi Calm Calm - N/A   Overcast
2:53 AM 52.0 °F 43.0 °F 71% 29.61 in 10.0 mi Calm Calm - N/A   Overcast
3:53 AM 48.9 °F 44.1 °F 83% 29.62 in 10.0 mi Calm Calm - N/A   Mostly Cloudy
4:53 AM 50.0 °F 43.0 °F 77% 29.63 in 10.0 mi Calm Calm - N/A   Mostly Cloudy
5:53 AM 51.1 °F 43.0 °F 74% 29.64 in 10.0 mi Calm Calm - N/A   Mostly Cloudy
6:53 AM 53.1 °F 37.9 °F 57% 29.64 in 10.0 mi SSW 5.8 mph - N/A   Mostly Cloudy
7:53 AM 53.1 °F 39.9 °F 61% 29.65 in 10.0 mi WSW 10.4 mph 16.1 mph N/A   Mostly Cloudy
8:53 AM 52.0 °F 41.0 °F 66% 29.65 in 10.0 mi SSW 8.1 mph - N/A   Mostly Cloudy
9:53 AM 53.1 °F 41.0 °F 64% 29.64 in 10.0 mi SW 8.1 mph - N/A   Mostly Cloudy
10:53 AM 54.0 °F 41.0 °F 62% 29.65 in 10.0 mi South 8.1 mph - N/A   Mostly Cloudy
11:53 AM 57.9 °F 42.1 °F 56% 29.64 in 10.0 mi Variable 6.9 mph - N/A   Mostly Cloudy
12:53 PM 57.9 °F 42.1 °F 56% 29.64 in 10.0 mi Calm Calm - N/A   Mostly Cloudy
1:53 PM 60.1 °F 42.1 °F 51% 29.63 in 10.0 mi Variable 5.8 mph - N/A   Mostly Cloudy
2:53 PM 63.0 °F 42.1 °F 46% 29.62 in 10.0 mi Variable 3.5 mph - N/A   Mostly Cloudy
3:53 PM 62.1 °F 41.0 °F 46% 29.61 in 10.0 mi SW 4.6 mph - 0.00 in Rain Light Rain
4:53 PM 59.0 °F 44.1 °F 58% 29.60 in 10.0 mi Variable 5.8 mph - 0.00 in Rain Light Rain
5:53 PM 51.1 °F 46.9 °F 86% 29.62 in 10.0 mi North 15.0 mph 19.6 mph 0.04 in Rain Light Rain
6:53 PM 51.1 °F 46.9 °F 86% 29.61 in 10.0 mi WNW 3.5 mph - 0.09 in Rain Light Rain
7:53 PM 51.1 °F 48.9 °F 92% 29.62 in 10.0 mi SW 4.6 mph - 0.05 in Rain Light Rain
8:53 PM 51.1 °F 48.0 °F 89% 29.63 in 10.0 mi SSW 3.5 mph - 0.00 in Rain Light Rain
9:53 PM 51.1 °F 48.9 °F 92% 29.64 in 10.0 mi Calm Calm - 0.00 in   Mostly Cloudy
10:53 PM 51.1 °F 48.9 °F 92% 29.65 in 10.0 mi Calm Calm - N/A   Mostly Cloudy
11:53 PM 50.0 °F 48.9 °F 96% 29.66 in 10.0 mi Calm Calm - 0.00 in Rain Light Rain